Velovelo
Português Nederlands 日本語 中文
Español English čeština slovenčina
русский italiano polski norsk
français Deutsch svenska عربي
 
 page précédente
 Envoyer à un ami
 Pour imprimer
 ---> La Flèche Normande 2007 : Résultats du 150 kms (BRS)

ClassNomPrénomCatC.catTemps.....Moy......
1 RENAUX Laurent D 1 4:10:10 36,69
2 HUBERT Nicolas C 1 4:10:14 36,68
3 HAVAS David D 2 4:10:33 36,64
4 VABRE Aurélien C 2 4:18:10 35,56
5 DE FILIPPIS Michel F 1 4:20:18 35,27
6 PRENTOUT François G 1 4:20:19 35,26
7 PERDEREAU David D 3 4:20:28 35,24
8 JAMES Anthony D 4 4:21:04 35,16
9 DOMALAIN François D 5 4:21:04 35,16
10 JORET Louis H 1 4:21:06 35,16
11 SERRAND Yannick D 6 4:21:06 35,16
12 PENIN Philippe E 1 4:21:06 35,16
13 BELVAY Mathieu C 3 4:21:06 35,16
14 POUSSIN Samuel D 7 4:21:08 35,15
15 CHAPELLE Ludo D 8 4:21:40 35,08
16 GIGUET Armand C 4 4:21:42 35,08
17 MERLIN Christophe D 9 4:21:43 35,07
18 AUDOUX Benjamin C 5 4:21:45 35,07
19 SANNIER Albert E 2 4:21:45 35,07
20 MESLIER Daniel I 1 4:21:45 35,07
21 BAPE Gérard F 2 4:21:45 35,07
22 BACON Eric E 3 4:21:47 35,07
23 VERRON Bruno F 3 4:21:49 35,06
24 JAMES Johan C 6 4:21:49 35,06
25 NAYL Bruno F 4 4:21:57 35,04
26 LEMERCIER Franck D 10 4:22:04 35,03
27 LELIEVRE Mickaël C 7 4:22:34 34,96
28 DUPONT Grégory C 8 4:22:35 34,96
29 COUFOURIER Jean Claude F 5 4:22:37 34,96
30 JUSTIN Fabrice D 11 4:22:37 34,95
31 RENAUX Samuel D 12 4:24:02 34,77
32 MOUSSAY Sébastien D 13 4:24:04 34,76
33 ELISABETH René F 6 4:24:05 34,76
34 DAVID Stéphane D 14 4:24:09 34,75
35 COLLET Victor C 9 4:24:31 34,7
36 REYNET Thomas D 15 4:25:03 34,63
37 THEODORE Olivier D 16 4:26:03 34,5
38 PIQUOT Jean Marc E 4 4:26:08 34,49
39 LISOWSKI Gérard I 2 4:27:29 34,32
40 TACLET François E 5 4:28:03 34,25
41 RICHER Frédéric D 17 4:28:04 34,24
42 FLEURY Patrice E 6 4:28:05 34,24
43 GAUDIN Karim D 18 4:28:06 34,24
44 TASSERY Jean Michel F 7 4:28:06 34,24
45 JULIEN Jean Pierre F 8 4:28:06 34,24
46 POUSSIN Lionel C 10 4:28:08 34,24
47 ROBINEAU Laurent E 7 4:28:10 34,23
48 GANDEBOEUF Franck E 8 4:28:13 34,23
49 HEBERT Nicolas C 11 4:28:34 34,18
50 VERDIER Frédéric C 12 4:28:48 34,15
51 TIENNOT Vincent F 9 4:28:49 34,15
52 MASSONE Romain C 13 4:29:06 34,11
53 VARIN Wilfrid G 2 4:29:17 34,09
54 TISON Sylvain D 19 4:29:50 34,02
55 GUIBON Yannick E 9 4:30:04 33,99
56 BROUSSIER Mathieu C 14 4:32:48 33,65
57 MORIN Nicolas D 20 4:33:01 33,62
58 COUTURIER Dominique E 10 4:33:02 33,62
59 BRIGATI Olivier D 21 4:33:03 33,62
60 BEROUDIAUX Philippe D 22 4:33:03 33,62
61 LEGER Thierry E 11 4:33:03 33,62
62 ENOUF Benoït D 23 4:33:04 33,62
63 LEROT Bertrand H 2 4:33:04 33,62
64 DENIS Didier F 10 4:33:05 33,62
65 GIGUET Jean Pierre F 11 4:33:05 33,62
66 GARDIEN Gérald F 12 4:33:06 33,61
67 LAMY Thierry E 12 4:33:07 33,61
68 RASSET Stéphane E 13 4:33:13 33,6
69 GRANDSERRE Loïc F 13 4:33:23 33,58
70 HALBOUT Laurent D 24 4:34:03 33,5
71 LAMBERT Frédéric C 15 4:34:35 33,43
72 FAUVEL Franck F 14 4:34:36 33,43
73 FAUVEL Davy D 25 4:34:38 33,43
74 LEJEUNE Martial G 3 4:34:57 33,39
75 CARRON Jean Michel F 15 4:35:10 33,36
76 LEFRANCOIS Matthieu C 16 4:35:51 33,28
77 BOURSY Stéphane D 26 4:36:05 33,25
78 FEYTONS Patrick I 3 4:39:26 32,85
79 CRESSENT Joël F 16 4:41:04 32,66
80 GIBOURDEL Patrick F 17 4:43:19 32,4
81 LAIGNEL Patrick E 14 4:43:20 32,4
82 BECQUEMON Alain E 15 4:43:21 32,4
83 VATINEL Michel I 4 4:43:24 32,39
84 BOUCHARD Didier F 18 4:43:29 32,38
85 PETIT Stéphane E 16 4:43:38 32,37
86 RENEE François C 17 4:43:52 32,34
87 GUERIN Michel F 19 4:43:53 32,34
88 DESBLACHES Didier H 3 4:43:55 32,33
89 SORIN Patrick G 4 4:43:57 32,33
90 LE POIL Stéphane D 27 4:43:59 32,33
91 BAUDRIBOS Jérôme D 28 4:44:01 32,32
92 CHEMINET Joël G 5 4:44:02 32,32
93 JULIENNE Didier F 20 4:44:02 32,32
94 TENDRON Willy D 29 4:44:04 32,32
95 PELE Dominique D 30 4:44:05 32,31
96 ARZEL Vincent E 17 4:44:07 32,31
97 LAMANT Mickaël D 31 4:44:23 32,28
98 PONTIN Yves G 6 4:44:46 32,24
99 PAUVIT Yannick E 18 4:44:50 32,23
100 LETELLIER Gilbert F 21 4:44:51 32,23
101 SALLIOU William D 32 4:44:54 32,22
102 CATHERINE Bruno F 22 4:44:57 32,22
103 ARBEY Jean Jacques F 23 4:45:11 32,19
104 DOUCET Didier F 24 4:45:20 32,17
105 GASCOIN Sandrine A 1 4:45:28 32,16
106 CATROS Philippe E 19 4:45:29 32,16
107 CATROS Sylvain D 33 4:45:29 32,16
108 ROUSSEL Cédric C 18 4:45:29 32,15
109 DESBLACHES Ludovic D 34 4:45:30 32,15
110 BOUVIER Vianney E 20 4:45:35 32,14
111 AMAND Fabrice D 35 4:45:45 32,13
112 BESNEHARD Benoit C 19 4:45:45 32,12
113 FOUQUET Daniel H 4 4:46:43 32,02
114 LEJEUNE Jacki I 5 4:48:26 31,83
115 LEJEUNE Grégory C 20 4:48:32 31,81
116 SORET Pascal E 21 4:48:35 31,81
117 GAUTIER Xavier D 36 4:49:44 31,68
118 HAROU Jacky F 25 4:50:01 31,65
119 GASCOIN Christian E 22 4:51:16 31,52
120 PRUD’HOMME Thierry E 23 4:51:18 31,51
121 BRUNET Steeve D 37 4:51:47 31,46
122 CIAVATTA Patrick F 26 4:51:51 31,45
123 JAMES Jean Pierre D 38 4:52:31 31,38
124 FLANT Pierre I 6 4:52:52 31,34
125 BAT Cyrille D 39 4:52:52 31,34
126 VOUILLEMY François E 24 4:53:03 31,32
127 CENIER Christian G 7 4:54:04 31,22
128 LEVESQUE Lucien I 7 4:54:04 31,22
129 COOLEN Jean Yves E 25 4:54:20 31,19
130 DUFAILLY Jean René I 8 4:54:25 31,18
131 MICHEL Jacques H 5 4:54:25 31,18
132 MOULINET Jacques H 6 4:54:43 31,15
133 NOVOA Jean Manuel D 40 4:56:33 30,95
134 ALEXANDRE Boris D 41 4:57:47 30,83
135 ARIGASCI Jean Pascal F 27 4:57:59 30,81
136 ROUSSEL Didier G 8 4:58:18 30,77
137 FOLLIOT Eric E 26 4:58:18 30,77
138 CAUCHOIS Martial G 9 4:58:19 30,77
139 PICAVET Patrick G 10 4:58:20 30,77
140 MARIE dit ASSE Philippe G 11 4:59:04 30,7
141 MIKOLASCAK Franck D 42 4:59:05 30,69
142 MOUCHEL Bernard I 9 4:59:07 30,69
143 SARROSQUY Bernard H 7 4:59:10 30,68
144 VAUTIER Olivier D 43 4:59:12 30,68
145 GEROUARD Jean Emmanuel D 44 4:59:12 30,68
146 FERRU Gilles G 12 4:59:14 30,68
147 MENIVAL David D 45 5:00:39 30,53
148 LERECULEY Eric E 27 5:01:48 30,42
149 BRUNET Gérard H 8 5:01:49 30,42
150 MELANIE Pascal E 28 5:05:43 30,03
151 BERSON Jacques G 13 5:07:48 29,82
152 NOURY Christian I 10 5:08:08 29,79
153 SALINES Jean E 29 5:08:46 29,73
154 NIBREU Jacques F 28 5:08:49 29,73
155 LOZAY François C 21 5:08:58 29,71
156 LEROY Alain E 30 5:09:06 29,7
157 LAUTOUR Pierre F 29 5:09:23 29,67
158 DENIS Bertrand D 46 5:09:56 29,62
159 ROUSSEAU Jean Paul H 9 5:09:57 29,62
160 ROMELLI Didier G 14 5:10:07 29,6
161 LECESNE Philippe F 30 5:10:25 29,57
162 DURAND Philippe E 31 5:10:39 29,55
163 LEJEUNE Jean Pierre I 11 5:10:41 29,55
164 ROBERT Cyril C 22 5:11:43 29,45
165 DESIRE Louis H 10 5:15:13 29,12
166 DENIS Jacques H 11 5:15:16 29,12
167 COLLIN Christian E 32 5:15:22 29,11
168 MALLE Françis F 31 5:17:01 28,96
169 HUET Philippe D 47 5:17:02 28,95
170 FOLLIN Jean Philippe G 15 5:17:16 28,93
171 LHOMME Dan D 48 5:17:18 28,93
172 DELAUNAY Martial E 33 5:17:19 28,93
173 ARCANTELI Romain C 23 5:18:18 28,84
174 BLIN Sylvie B 1 5:19:29 28,73
175 MARQUET Alain G 16 5:19:31 28,73
176 BRIZION Denis F 32 5:19:33 28,73
177 LENOIR Michel F 33 5:20:39 28,63
178 DEJARDIN Michel F 34 5:21:18 28,57
179 GIARD Gilbert H 12 5:22:21 28,48
180 BACON Chantal A 2 5:22:50 28,43
181 BIGOT Patrick E 34 5:22:50 28,43
182 KWASNY Stanislas I 12 5:22:51 28,43
183 VAUCLAIR Guy I 13 5:28:00 27,99
184 DORE Daniel I 14 5:31:58 27,65
185 KREJPOWICZ Henri F 35 5:32:00 27,65
186 IRENEE Jean Louis H 13 5:32:10 27,64
187 MARGUERITE Laurent F 36 5:32:47 27,58
188 LALLEMANT Mathieu D 49 5:33:18 27,54
189 PERRIER Jean Philippe D 50 5:33:20 27,54
190 GIGUET Damien D 51 5:33:45 27,5
191 BIENAIME Guy G 17 5:33:45 27,5
192 ISAAC Hervé E 35 5:33:52 27,5
193 FORESTIER Sébastien C 24 5:33:54 27,49
194 GUCHET Roger G 18 5:34:43 27,42
195 THOMMERET Damien C 25 5:39:12 27,06
196 RENEE Pascal F 37 5:49:20 26,28
197 JUSTIN Daniel H 14 5:59:54 25,51
198 KOUBA Abdelkader I 15 6:04:13 25,2
199 CUSSY Christian H 15 6:04:47 25,17
200 MALHERBE Jean Claude H 16 6:06:22 25,06
201 DESQUENE Joseph H 17 6:06:22 25,06
202 FORESTIER Jacky H 18 6:07:03 25,01
203 DEWAELE Francis H 19 6:07:10 25
204 SANCHEZ Angel G 19 6:15:45 24,43
205 TOSSER Olivier E 36 6:15:45 24,43
206 KOSTRZEWA Philippe G 20 6:17:25 24,32
207 FOLLENFANT Christophe C 26 6:18:05 24,28
208 GOAZIOU Serge H 20 6:19:18 24,2
209 DE PIERREPONT Rémy G 21 6:19:19 24,2
210 QUEMAR Gérard G 22 6:19:22 24,2

Haut 









Haut  
 Espace privé   Droits d’auteur-Copyright: Cliquez ici pour lire !